Time,TemperatureF,DewpointF,PressureIn,WindDirection,WindDirectionDegrees,WindSpeedMPH,WindSpeedGustMPH,Humidity,HourlyPrecipIn,Conditions,Clouds,dailyrainin,SoftwareType,DateUTC
2013-02-07 00:03:00,54.7,42.8,29.88,SSE,166,4.0,11.0,64,0.00,,,0.00,meteohub,2013-02-07 06:03:00,
2013-02-07 00:08:00,54.7,42.8,29.88,SSE,155,8.0,11.0,64,0.00,,,0.00,meteohub,2013-02-07 06:08:00,
2013-02-07 00:13:00,54.3,42.4,29.87,SE,135,2.0,10.0,64,0.00,,,0.00,meteohub,2013-02-07 06:13:00,
2013-02-07 00:18:00,54.3,42.8,29.88,SE,131,7.0,10.0,65,0.00,,,0.00,meteohub,2013-02-07 06:18:00,
2013-02-07 00:23:00,54.3,42.8,29.88,SW,217,5.0,10.0,65,0.00,,,0.00,meteohub,2013-02-07 06:23:00,
2013-02-07 00:28:00,54.1,42.6,29.88,SSW,205,2.0,10.0,65,0.00,,,0.00,meteohub,2013-02-07 06:28:00,
2013-02-07 00:33:00,54.1,42.6,29.88,SSE,154,1.0,7.0,65,0.00,,,0.00,meteohub,2013-02-07 06:33:00,
2013-02-07 00:38:00,54.3,42.8,29.88,SSW,194,4.0,8.0,65,0.00,,,0.00,meteohub,2013-02-07 06:38:00,
2013-02-07 00:43:00,54.5,42.6,29.88,SE,141,4.0,8.0,64,0.00,,,0.00,meteohub,2013-02-07 06:43:00,
2013-02-07 00:48:00,54.7,42.8,29.88,SE,131,5.0,11.0,64,0.00,,,0.00,meteohub,2013-02-07 06:48:00,
2013-02-07 00:53:00,54.7,42.8,29.87,SSE,157,5.0,11.0,64,0.00,,,0.00,meteohub,2013-02-07 06:53:00,
2013-02-07 00:58:00,54.7,42.8,29.87,SSW,193,7.0,11.0,64,0.00,,,0.00,meteohub,2013-02-07 06:58:00,
2013-02-07 01:03:00,54.7,42.3,29.86,SSE,150,6.0,13.0,63,0.00,,,0.00,meteohub,2013-02-07 07:03:00,
2013-02-07 01:08:00,54.3,42.1,29.86,SSE,154,5.0,13.0,63,0.00,,,0.00,meteohub,2013-02-07 07:08:00,
2013-02-07 01:13:00,54.1,42.3,29.85,SE,136,4.0,13.0,64,0.00,,,0.00,meteohub,2013-02-07 07:13:00,
2013-02-07 01:18:00,54.0,42.1,29.85,SSE,153,11.0,16.0,64,0.00,,,0.00,meteohub,2013-02-07 07:18:00,
2013-02-07 01:23:00,53.6,42.1,29.85,SSE,157,5.0,16.0,65,0.00,,,0.00,meteohub,2013-02-07 07:23:00,
2013-02-07 01:28:00,53.4,41.9,29.85,South,169,7.0,13.0,65,0.00,,,0.00,meteohub,2013-02-07 07:28:00,
2013-02-07 01:33:00,53.2,41.7,29.85,SSE,158,3.0,13.0,65,0.00,,,0.00,meteohub,2013-02-07 07:33:00,
2013-02-07 01:38:00,53.1,42.1,29.85,South,182,3.0,12.0,66,0.00,,,0.00,meteohub,2013-02-07 07:38:00,
2013-02-07 01:43:00,53.1,42.1,29.85,South,186,6.0,12.0,66,0.00,,,0.00,meteohub,2013-02-07 07:43:00,
2013-02-07 01:48:00,53.1,42.1,29.85,SE,146,5.0,12.0,66,0.00,,,0.00,meteohub,2013-02-07 07:48:00,
2013-02-07 01:53:00,53.1,42.1,29.85,South,171,6.0,11.0,66,0.00,,,0.00,meteohub,2013-02-07 07:53:00,
2013-02-07 01:58:00,53.1,42.1,29.85,SSW,197,4.0,11.0,66,0.00,,,0.00,meteohub,2013-02-07 07:58:00,
2013-02-07 02:03:00,53.1,42.1,29.85,SE,138,10.0,12.0,66,0.00,,,0.00,meteohub,2013-02-07 08:03:00,
2013-02-07 02:08:00,53.1,42.1,29.85,SE,134,7.0,12.0,66,0.00,,,0.00,meteohub,2013-02-07 08:08:00,
2013-02-07 02:13:00,53.1,42.1,29.85,SSE,167,12.0,12.0,66,0.00,,,0.00,meteohub,2013-02-07 08:13:00,
2013-02-07 02:18:00,53.1,42.1,29.85,SSE,150,4.0,12.0,66,0.00,,,0.00,meteohub,2013-02-07 08:18:00,
2013-02-07 02:23:00,53.1,42.1,29.85,SSW,194,3.0,12.0,66,0.00,,,0.00,meteohub,2013-02-07 08:23:00,
2013-02-07 02:28:00,52.9,41.9,29.84,SSE,157,11.0,13.0,66,0.00,,,0.00,meteohub,2013-02-07 08:28:00,
2013-02-07 02:33:00,52.9,42.3,29.84,South,176,10.0,13.0,67,0.00,,,0.00,meteohub,2013-02-07 08:33:00,
2013-02-07 02:38:00,52.3,42.8,29.84,SE,144,6.0,13.0,70,0.02,,,0.01,meteohub,2013-02-07 08:38:00,
2013-02-07 02:44:00,52.0,43.2,29.86,South,186,2.0,13.0,72,0.03,,,0.03,meteohub,2013-02-07 08:44:00,
2013-02-07 02:49:00,51.6,43.5,29.85,South,186,3.0,13.0,74,0.03,,,0.03,meteohub,2013-02-07 08:49:00,
2013-02-07 02:54:00,51.3,43.3,29.85,SSE,155,4.0,12.0,74,0.03,,,0.03,meteohub,2013-02-07 08:54:00,
2013-02-07 02:59:00,51.1,43.7,29.85,SSE,149,5.0,10.0,76,0.03,,,0.03,meteohub,2013-02-07 08:59:00,
2013-02-07 03:04:00,50.9,43.5,29.85,SSE,161,4.0,9.0,76,0.03,,,0.03,meteohub,2013-02-07 09:04:00,
2013-02-07 03:09:00,50.7,43.7,29.86,South,173,2.0,9.0,77,0.03,,,0.03,meteohub,2013-02-07 09:09:00,
2013-02-07 03:14:00,50.7,43.7,29.86,WSW,238,1.0,10.0,77,0.04,,,0.04,meteohub,2013-02-07 09:14:00,
2013-02-07 03:19:00,50.5,44.2,29.86,SSE,163,3.0,10.0,79,0.05,,,0.05,meteohub,2013-02-07 09:19:00,
2013-02-07 03:24:00,50.2,44.2,29.85,South,171,2.0,10.0,80,0.07,,,0.05,meteohub,2013-02-07 09:24:00,
2013-02-07 03:29:00,49.8,44.6,29.84,South,171,3.0,10.0,82,0.07,,,0.05,meteohub,2013-02-07 09:29:00,
2013-02-07 03:34:00,49.6,44.8,29.84,SE,146,3.0,9.0,83,0.07,,,0.07,meteohub,2013-02-07 09:34:00,
2013-02-07 03:39:00,49.5,44.8,29.84,SE,144,3.0,9.0,84,0.04,,,0.07,meteohub,2013-02-07 09:39:00,
2013-02-07 03:44:00,49.5,44.8,29.83,SSE,163,3.0,9.0,84,0.04,,,0.07,meteohub,2013-02-07 09:44:00,
2013-02-07 03:49:00,49.3,45.0,29.84,SSE,149,3.0,9.0,85,0.05,,,0.08,meteohub,2013-02-07 09:49:00,
2013-02-07 03:54:00,49.1,44.8,29.84,SE,144,4.0,9.0,85,0.06,,,0.08,meteohub,2013-02-07 09:54:00,
2013-02-07 03:59:00,48.9,45.0,29.83,SE,136,3.0,9.0,86,0.06,,,0.09,meteohub,2013-02-07 09:59:00,
2013-02-07 04:04:00,48.7,45.0,29.83,SE,138,0.0,9.0,87,0.06,,,0.09,meteohub,2013-02-07 10:04:00,
2013-02-07 04:09:00,48.6,44.8,29.83,SE,140,0.0,9.0,87,0.06,,,0.09,meteohub,2013-02-07 10:09:00,
2013-02-07 04:14:00,48.4,45.0,29.83,SE,140,0.0,4.0,88,0.08,,,0.12,meteohub,2013-02-07 10:14:00,
2013-02-07 04:19:00,48.4,45.0,29.84,SE,140,0.0,3.0,88,0.09,,,0.13,meteohub,2013-02-07 10:19:00,
2013-02-07 04:24:00,48.4,45.0,29.84,WNW,302,0.0,3.0,88,0.08,,,0.15,meteohub,2013-02-07 10:24:00,
2013-02-07 04:29:00,48.2,45.1,29.84,South,178,0.0,3.0,89,0.08,,,0.15,meteohub,2013-02-07 10:29:00,
2013-02-07 04:34:00,48.2,45.1,29.84,WSW,252,1.0,3.0,89,0.10,,,0.17,meteohub,2013-02-07 10:34:00,
2013-02-07 04:39:00,48.4,45.5,29.84,West,259,0.0,3.0,90,0.11,,,0.18,meteohub,2013-02-07 10:39:00,
2013-02-07 04:44:00,48.4,45.5,29.84,West,259,0.0,3.0,90,0.12,,,0.19,meteohub,2013-02-07 10:44:00,
2013-02-07 04:49:00,48.4,45.5,29.84,WSW,252,0.0,3.0,90,0.11,,,0.19,meteohub,2013-02-07 10:49:00,
2013-02-07 04:54:00,48.4,45.5,29.84,WSW,252,0.0,3.0,90,0.11,,,0.20,meteohub,2013-02-07 10:54:00,
2013-02-07 04:59:00,48.4,45.5,29.83,SW,220,0.0,1.0,90,0.11,,,0.20,meteohub,2013-02-07 10:59:00,
2013-02-07 05:04:00,48.4,45.5,29.84,SSW,194,0.0,1.0,90,0.11,,,0.21,meteohub,2013-02-07 11:04:00,
2013-02-07 05:09:00,48.2,45.7,29.85,SSW,194,0.0,2.0,91,0.11,,,0.21,meteohub,2013-02-07 11:09:00,
2013-02-07 05:14:00,48.2,45.7,29.85,South,182,0.0,2.0,91,0.11,,,0.24,meteohub,2013-02-07 11:14:00,
2013-02-07 05:19:00,48.0,45.5,29.84,South,182,0.0,2.0,91,0.13,,,0.24,meteohub,2013-02-07 11:19:00,
2013-02-07 05:24:00,48.0,45.9,29.85,South,182,0.0,2.0,92,0.13,,,0.31,meteohub,2013-02-07 11:24:00,
2013-02-07 05:29:00,48.2,46.0,29.84,South,188,0.0,1.0,92,0.16,,,0.31,meteohub,2013-02-07 11:29:00,
2013-02-07 05:34:00,48.2,46.0,29.84,South,183,1.0,1.0,92,0.16,,,0.35,meteohub,2013-02-07 11:34:00,
2013-02-07 05:39:00,48.2,46.0,29.84,South,183,0.0,3.0,92,0.20,,,0.35,meteohub,2013-02-07 11:39:00,
2013-02-07 05:44:00,48.2,46.0,29.83,ESE,107,1.0,3.0,92,0.20,,,0.41,meteohub,2013-02-07 11:44:00,
2013-02-07 05:49:00,47.8,45.7,29.83,SE,126,0.0,3.0,92,0.24,,,0.41,meteohub,2013-02-07 11:49:00,
2013-02-07 05:54:00,47.8,45.7,29.84,South,170,0.0,3.0,92,0.24,,,0.45,meteohub,2013-02-07 11:54:00,
2013-02-07 05:59:00,47.8,45.7,29.84,South,170,0.0,3.0,92,0.26,,,0.45,meteohub,2013-02-07 11:59:00,
2013-02-07 06:04:00,48.0,46.0,29.84,West,263,0.0,3.0,93,0.26,,,0.47,meteohub,2013-02-07 12:04:00,
2013-02-07 06:09:00,48.0,46.0,29.84,WNW,301,1.0,2.0,93,0.25,,,0.47,meteohub,2013-02-07 12:09:00,
2013-02-07 06:14:00,48.0,46.0,29.84,NW,304,0.0,2.0,93,0.25,,,0.49,meteohub,2013-02-07 12:14:00,
2013-02-07 06:19:00,47.8,45.9,29.84,NW,304,0.0,2.0,93,0.24,,,0.49,meteohub,2013-02-07 12:19:00,
2013-02-07 06:24:00,48.0,46.0,29.84,NNE,18,0.0,2.0,93,0.24,,,0.52,meteohub,2013-02-07 12:24:00,
2013-02-07 06:29:00,47.8,45.9,29.84,NNE,18,0.0,2.0,93,0.21,,,0.52,meteohub,2013-02-07 12:29:00,
2013-02-07 06:34:00,47.8,45.9,29.84,NNE,18,0.0,2.0,93,0.21,,,0.52,meteohub,2013-02-07 12:34:00,
2013-02-07 06:39:00,47.8,45.9,29.85,NNE,13,1.0,2.0,93,0.21,,,0.54,meteohub,2013-02-07 12:39:00,
2013-02-07 06:44:00,47.8,45.9,29.85,North,5,1.0,2.0,93,0.13,,,0.54,meteohub,2013-02-07 12:44:00,
2013-02-07 06:49:00,47.7,45.7,29.85,NW,324,0.0,2.0,93,0.13,,,0.54,meteohub,2013-02-07 12:49:00,
2013-02-07 06:54:00,47.7,45.7,29.84,NW,324,0.0,2.0,93,0.13,,,0.55,meteohub,2013-02-07 12:54:00,
2013-02-07 06:59:00,47.7,46.0,29.85,NW,324,1.0,2.0,94,0.08,,,0.55,meteohub,2013-02-07 12:59:00,
2013-02-07 07:04:00,47.8,46.2,29.85,NW,324,0.0,2.0,94,0.08,,,0.55,meteohub,2013-02-07 13:04:00,
2013-02-07 07:09:00,47.8,46.2,29.85,NW,324,2.0,2.0,94,0.08,,,0.55,meteohub,2013-02-07 13:09:00,
2013-02-07 07:14:00,47.8,46.2,29.85,NW,324,2.0,3.0,94,0.05,,,0.55,meteohub,2013-02-07 13:14:00,
2013-02-07 07:19:00,47.8,46.2,29.85,NW,324,2.0,3.0,94,0.05,,,0.55,meteohub,2013-02-07 13:19:00,
2013-02-07 07:24:00,48.0,46.4,29.85,NW,316,2.0,3.0,94,0.05,,,0.55,meteohub,2013-02-07 13:24:00,
2013-02-07 07:29:00,48.0,46.4,29.85,WNW,301,0.0,3.0,94,0.03,,,0.55,meteohub,2013-02-07 13:29:00,
2013-02-07 07:34:00,48.0,46.4,29.86,WNW,294,2.0,3.0,94,0.03,,,0.55,meteohub,2013-02-07 13:34:00,
2013-02-07 07:39:00,48.0,46.4,29.86,West,273,2.0,3.0,94,0.03,,,0.58,meteohub,2013-02-07 13:39:00,
2013-02-07 07:44:00,48.0,46.4,29.86,WNW,302,2.0,4.0,94,0.06,,,0.58,meteohub,2013-02-07 13:44:00,
2013-02-07 07:49:00,48.0,46.4,29.87,WNW,294,2.0,4.0,94,0.06,,,0.58,meteohub,2013-02-07 13:49:00,
2013-02-07 07:54:00,48.0,46.4,29.87,West,269,3.0,4.0,94,0.06,,,0.63,meteohub,2013-02-07 13:54:00,
2013-02-07 07:59:00,48.2,46.8,29.87,West,279,2.0,5.0,95,0.09,,,0.63,meteohub,2013-02-07 13:59:00,
2013-02-07 08:04:00,48.4,46.9,29.88,WSW,257,2.0,5.0,95,0.09,,,0.65,meteohub,2013-02-07 14:04:00,
2013-02-07 08:09:00,48.4,46.9,29.88,West,281,1.0,4.0,95,0.12,,,0.65,meteohub,2013-02-07 14:09:00,
2013-02-07 08:14:00,48.6,47.1,29.88,WSW,249,4.0,4.0,95,0.14,,,0.69,meteohub,2013-02-07 14:14:00,
2013-02-07 08:19:00,48.6,47.1,29.88,NW,307,4.0,5.0,95,0.14,,,0.69,meteohub,2013-02-07 14:19:00,
2013-02-07 08:24:00,48.6,47.1,29.89,WNW,292,2.0,5.0,95,0.14,,,0.71,meteohub,2013-02-07 14:24:00,
2013-02-07 08:29:00,48.6,47.1,29.89,WNW,300,5.0,5.0,95,0.15,,,0.71,meteohub,2013-02-07 14:29:00,
2013-02-07 08:34:00,48.6,47.1,29.89,West,271,4.0,5.0,95,0.16,,,0.73,meteohub,2013-02-07 14:34:00,
2013-02-07 08:39:00,48.2,46.6,29.89,WSW,256,9.0,9.0,94,0.16,,,0.73,meteohub,2013-02-07 14:39:00,
2013-02-07 08:44:00,47.8,46.2,29.90,NW,304,10.0,10.0,94,0.16,,,0.76,meteohub,2013-02-07 14:44:00,
2013-02-07 08:49:00,47.3,45.3,29.89,NW,304,6.0,13.0,93,0.16,,,0.76,meteohub,2013-02-07 14:49:00,
2013-02-07 08:54:00,46.8,44.8,29.89,NW,317,9.0,13.0,93,0.15,,,0.78,meteohub,2013-02-07 14:54:00,
2013-02-07 08:59:00,46.4,44.4,29.90,WNW,298,10.0,16.0,93,0.15,,,0.78,meteohub,2013-02-07 14:59:00,
2013-02-07 09:04:00,46.0,44.1,29.89,NW,316,6.0,16.0,93,0.15,,,0.81,meteohub,2013-02-07 15:04:00,
2013-02-07 09:09:00,45.9,43.7,29.89,North,349,1.0,16.0,92,0.14,,,0.81,meteohub,2013-02-07 15:09:00,
2013-02-07 09:14:00,45.9,43.9,29.89,NNW,348,1.0,16.0,93,0.14,,,0.81,meteohub,2013-02-07 15:14:00,
2013-02-07 09:19:00,45.7,43.5,29.89,NNW,334,6.0,13.0,92,0.12,,,0.81,meteohub,2013-02-07 15:19:00,
2013-02-07 09:24:00,45.3,43.2,29.89,NW,317,2.0,13.0,92,0.12,,,0.82,meteohub,2013-02-07 15:24:00,
2013-02-07 09:29:00,45.3,43.2,29.90,WNW,291,5.0,12.0,92,0.10,,,0.82,meteohub,2013-02-07 15:29:00,
2013-02-07 09:34:00,44.8,42.3,29.91,WNW,286,8.0,12.0,91,0.10,,,0.82,meteohub,2013-02-07 15:34:00,
2013-02-07 09:39:00,44.1,41.4,29.91,North,350,5.0,12.0,90,0.07,,,0.82,meteohub,2013-02-07 15:39:00,
2013-02-07 09:44:00,43.9,41.2,29.91,North,0,5.0,12.0,90,0.07,,,0.83,meteohub,2013-02-07 15:44:00,
2013-02-07 09:49:00,43.7,41.0,29.92,NNW,338,5.0,16.0,90,0.06,,,0.83,meteohub,2013-02-07 15:49:00,
2013-02-07 09:54:00,43.5,40.8,29.92,WNW,301,6.0,14.0,90,0.04,,,0.83,meteohub,2013-02-07 15:54:00,
2013-02-07 09:59:00,43.2,40.5,29.92,North,355,6.0,13.0,90,0.03,,,0.84,meteohub,2013-02-07 15:59:00,
2013-02-07 10:04:00,43.0,40.3,29.92,NNW,327,5.0,18.0,90,0.03,,,0.84,meteohub,2013-02-07 16:04:00,
2013-02-07 10:09:00,42.8,40.1,29.92,NW,325,5.0,18.0,90,0.03,,,0.84,meteohub,2013-02-07 16:09:00,
2013-02-07 10:14:00,42.8,40.1,29.91,NW,309,4.0,18.0,90,0.04,,,0.85,meteohub,2013-02-07 16:14:00,
2013-02-07 10:19:00,42.8,40.1,29.91,NE,42,4.0,13.0,90,0.03,,,0.85,meteohub,2013-02-07 16:19:00,
2013-02-07 10:24:00,43.0,40.3,29.92,North,355,2.0,12.0,90,0.03,,,0.85,meteohub,2013-02-07 16:24:00,
2013-02-07 10:29:00,43.2,40.6,29.91,North,5,4.0,12.0,91,0.03,,,0.85,meteohub,2013-02-07 16:29:00,
2013-02-07 10:34:00,43.3,40.8,29.91,NNW,330,1.0,11.0,91,0.04,,,0.86,meteohub,2013-02-07 16:34:00,
2013-02-07 10:39:00,43.3,40.6,29.91,NE,49,9.0,11.0,90,0.04,,,0.86,meteohub,2013-02-07 16:39:00,
2013-02-07 10:44:00,43.3,40.6,29.92,North,349,2.0,11.0,90,0.03,,,0.86,meteohub,2013-02-07 16:44:00,
2013-02-07 10:49:00,43.5,40.5,29.93,NW,310,6.0,10.0,89,0.03,,,0.86,meteohub,2013-02-07 16:49:00,
2013-02-07 10:54:00,43.5,40.5,29.93,NW,304,6.0,14.0,89,0.03,,,0.86,meteohub,2013-02-07 16:54:00,
2013-02-07 10:59:00,43.5,40.3,29.94,NNW,342,1.0,14.0,88,0.02,,,0.86,meteohub,2013-02-07 16:59:00,
2013-02-07 11:04:00,43.9,40.6,29.94,WNW,303,9.0,14.0,88,0.02,,,0.86,meteohub,2013-02-07 17:04:00,
2013-02-07 11:09:00,44.1,40.8,29.94,NW,323,2.0,14.0,88,0.02,,,0.86,meteohub,2013-02-07 17:09:00,
2013-02-07 11:14:00,44.2,40.6,29.94,NW,307,5.0,10.0,87,0.01,,,0.86,meteohub,2013-02-07 17:14:00,
2013-02-07 11:19:00,44.2,40.6,29.94,NW,325,3.0,10.0,87,0.01,,,0.86,meteohub,2013-02-07 17:19:00,
2013-02-07 11:24:00,44.4,40.8,29.94,NW,313,4.0,10.0,87,0.00,,,0.86,meteohub,2013-02-07 17:24:00,
2013-02-07 11:29:00,44.4,40.5,29.95,NNW,338,3.0,10.0,86,0.00,,,0.86,meteohub,2013-02-07 17:29:00,
2013-02-07 11:34:00,44.8,40.8,29.95,WNW,299,6.0,10.0,86,0.00,,,0.86,meteohub,2013-02-07 17:34:00,
2013-02-07 11:39:00,44.8,40.5,29.95,NNW,340,2.0,10.0,85,0.00,,,0.86,meteohub,2013-02-07 17:39:00,
2013-02-07 11:44:00,44.8,40.5,29.95,NW,308,2.0,10.0,85,0.00,,,0.86,meteohub,2013-02-07 17:44:00,
2013-02-07 11:49:00,45.0,40.6,29.95,NNW,333,5.0,10.0,85,0.00,,,0.86,meteohub,2013-02-07 17:49:00,
2013-02-07 11:54:00,45.1,40.6,29.95,West,279,9.0,12.0,84,0.00,,,0.86,meteohub,2013-02-07 17:54:00,
2013-02-07 11:59:00,45.1,40.6,29.95,NNW,338,3.0,12.0,84,0.00,,,0.86,meteohub,2013-02-07 17:59:00,
2013-02-07 12:04:00,45.3,40.8,29.96,NW,309,8.0,12.0,84,0.00,,,0.86,meteohub,2013-02-07 18:04:00,
2013-02-07 12:09:00,45.3,40.5,29.96,WNW,299,2.0,12.0,83,0.00,,,0.86,meteohub,2013-02-07 18:09:00,
2013-02-07 12:14:00,45.9,41.4,29.95,NW,319,8.0,13.0,84,0.00,,,0.86,meteohub,2013-02-07 18:14:00,
2013-02-07 12:19:00,45.9,41.0,29.95,NW,323,6.0,13.0,83,0.00,,,0.86,meteohub,2013-02-07 18:19:00,
2013-02-07 12:24:00,46.0,41.2,29.95,WNW,293,4.0,13.0,83,0.00,,,0.86,meteohub,2013-02-07 18:24:00,
2013-02-07 12:29:00,46.0,40.8,29.94,NW,323,4.0,12.0,82,0.00,,,0.86,meteohub,2013-02-07 18:29:00,
2013-02-07 12:34:00,46.0,41.2,29.95,North,5,3.0,12.0,83,0.00,,,0.86,meteohub,2013-02-07 18:34:00,
2013-02-07 12:39:00,46.2,41.0,29.95,NW,323,10.0,13.0,82,0.00,,,0.86,meteohub,2013-02-07 18:39:00,
2013-02-07 12:44:00,46.2,40.5,29.95,NNW,342,5.0,13.0,80,0.00,,,0.86,meteohub,2013-02-07 18:44:00,
2013-02-07 12:49:00,45.9,40.3,29.95,WNW,297,5.0,17.0,81,0.00,,,0.86,meteohub,2013-02-07 18:49:00,
2013-02-07 12:54:00,46.0,40.8,29.94,NW,316,4.0,17.0,82,0.00,,,0.86,meteohub,2013-02-07 18:54:00,
2013-02-07 12:59:00,46.2,41.0,29.94,NNW,344,6.0,17.0,82,0.00,,,0.86,meteohub,2013-02-07 18:59:00,
2013-02-07 13:04:00,46.8,41.2,29.94,WNW,300,2.0,16.0,81,0.00,,,0.86,meteohub,2013-02-07 19:04:00,
2013-02-07 13:09:00,46.8,41.2,29.94,NNW,336,3.0,16.0,81,0.00,,,0.86,meteohub,2013-02-07 19:09:00,
2013-02-07 13:14:00,46.9,41.4,29.94,North,0,6.0,14.0,81,0.00,,,0.86,meteohub,2013-02-07 19:14:00,
2013-02-07 13:19:00,47.3,41.2,29.94,NNW,347,10.0,14.0,79,0.00,,,0.86,meteohub,2013-02-07 19:19:00,
2013-02-07 13:24:00,47.3,41.4,29.94,NNW,329,3.0,13.0,80,0.00,,,0.86,meteohub,2013-02-07 19:24:00,
2013-02-07 13:29:00,47.7,41.7,29.95,WNW,282,5.0,13.0,80,0.00,,,0.86,meteohub,2013-02-07 19:29:00,
2013-02-07 13:34:00,47.7,41.5,29.95,NNW,344,10.0,13.0,79,0.00,,,0.86,meteohub,2013-02-07 19:34:00,
2013-02-07 13:39:00,47.7,41.5,29.95,NE,48,4.0,16.0,79,0.00,,,0.86,meteohub,2013-02-07 19:39:00,
2013-02-07 13:44:00,48.0,42.1,29.95,NNW,344,9.0,16.0,80,0.00,,,0.86,meteohub,2013-02-07 19:44:00,
2013-02-07 13:49:00,48.4,42.3,29.95,NNW,345,5.0,16.0,79,0.00,,,0.86,meteohub,2013-02-07 19:49:00,
2013-02-07 13:54:00,48.6,42.1,29.95,North,355,5.0,13.0,78,0.00,,,0.86,meteohub,2013-02-07 19:54:00,
2013-02-07 13:59:00,48.7,41.9,29.95,NNE,13,7.0,16.0,77,0.00,,,0.86,meteohub,2013-02-07 19:59:00,
2013-02-07 14:04:00,48.9,42.1,29.95,NW,313,9.0,16.0,77,0.00,,,0.86,meteohub,2013-02-07 20:04:00,
2013-02-07 14:09:00,49.5,42.3,29.95,North,355,4.0,16.0,76,0.00,,,0.86,meteohub,2013-02-07 20:09:00,
2013-02-07 14:14:00,49.6,42.1,29.95,North,355,4.0,16.0,75,0.00,,,0.86,meteohub,2013-02-07 20:14:00,
2013-02-07 14:19:00,49.8,42.3,29.95,NNW,334,2.0,16.0,75,0.00,,,0.86,meteohub,2013-02-07 20:19:00,
2013-02-07 14:24:00,50.0,41.7,29.95,NNW,341,5.0,14.0,73,0.00,,,0.86,meteohub,2013-02-07 20:24:00,
2013-02-07 14:29:00,49.8,41.5,29.95,NW,318,7.0,14.0,73,0.00,,,0.86,meteohub,2013-02-07 20:29:00,
2013-02-07 14:34:00,49.6,41.0,29.96,NE,34,10.0,18.0,72,0.00,,,0.86,meteohub,2013-02-07 20:34:00,
2013-02-07 14:39:00,49.5,40.5,29.96,NNE,28,14.0,18.0,71,0.00,,,0.86,meteohub,2013-02-07 20:39:00,
2013-02-07 14:44:00,49.5,40.1,29.95,NE,36,13.0,17.0,70,0.00,,,0.86,meteohub,2013-02-07 20:44:00,
2013-02-07 14:49:00,48.9,39.2,29.96,WNW,283,4.0,17.0,69,0.00,,,0.86,meteohub,2013-02-07 20:49:00,
2013-02-07 14:54:00,48.7,39.7,29.96,NW,304,4.0,20.0,71,0.00,,,0.86,meteohub,2013-02-07 20:54:00,
2013-02-07 14:59:00,48.9,39.9,29.96,NNW,338,9.0,20.0,71,0.00,,,0.86,meteohub,2013-02-07 20:59:00,
2013-02-07 15:04:00,48.7,39.7,29.97,WNW,302,6.0,17.0,71,0.00,,,0.86,meteohub,2013-02-07 21:04:00,
2013-02-07 15:09:00,48.6,39.2,29.97,NE,44,4.0,17.0,70,0.00,,,0.86,meteohub,2013-02-07 21:09:00,
2013-02-07 15:14:00,48.7,39.4,29.97,NNE,18,3.0,17.0,70,0.00,,,0.86,meteohub,2013-02-07 21:14:00,
2013-02-07 15:19:00,48.6,39.2,29.97,NNW,336,6.0,15.0,70,0.00,,,0.86,meteohub,2013-02-07 21:19:00,
2013-02-07 15:24:00,48.0,38.7,29.98,NW,324,6.0,15.0,70,0.00,,,0.86,meteohub,2013-02-07 21:24:00,
2013-02-07 15:29:00,47.8,38.5,29.98,NNE,17,4.0,15.0,70,0.00,,,0.86,meteohub,2013-02-07 21:29:00,
2013-02-07 15:34:00,48.0,38.7,29.98,North,0,3.0,15.0,70,0.00,,,0.86,meteohub,2013-02-07 21:34:00,
2013-02-07 15:39:00,48.4,38.7,29.98,North,9,6.0,15.0,69,0.00,,,0.86,meteohub,2013-02-07 21:39:00,
2013-02-07 15:44:00,48.4,38.7,29.98,NW,321,6.0,14.0,69,0.00,,,0.86,meteohub,2013-02-07 21:44:00,
2013-02-07 15:49:00,48.2,37.8,29.98,NW,308,5.0,14.0,67,0.00,,,0.86,meteohub,2013-02-07 21:49:00,
2013-02-07 15:54:00,47.8,37.4,29.99,North,355,10.0,16.0,67,0.00,,,0.86,meteohub,2013-02-07 21:54:00,
2013-02-07 15:59:00,47.8,37.8,29.99,North,349,12.0,16.0,68,0.00,,,0.86,meteohub,2013-02-07 21:59:00,
2013-02-07 16:04:00,47.8,38.1,29.99,North,355,9.0,14.0,69,0.00,,,0.86,meteohub,2013-02-07 22:04:00,
2013-02-07 16:09:00,48.0,38.3,29.99,NW,326,2.0,14.0,69,0.00,,,0.86,meteohub,2013-02-07 22:09:00,
2013-02-07 16:14:00,48.2,38.1,29.99,North,5,11.0,14.0,68,0.00,,,0.86,meteohub,2013-02-07 22:14:00,
2013-02-07 16:19:00,48.0,37.9,29.99,NNW,328,6.0,13.0,68,0.00,,,0.86,meteohub,2013-02-07 22:19:00,
2013-02-07 16:24:00,47.8,37.8,29.99,NW,315,4.0,14.0,68,0.00,,,0.86,meteohub,2013-02-07 22:24:00,
2013-02-07 16:30:00,47.8,38.1,30.00,North,9,4.0,14.0,69,0.00,,,0.86,meteohub,2013-02-07 22:30:00,
2013-02-07 16:34:00,47.7,37.9,30.01,WNW,300,3.0,16.0,69,0.00,,,0.86,meteohub,2013-02-07 22:34:00,
2013-02-07 16:39:00,47.7,37.9,30.01,NNW,332,6.0,16.0,69,0.00,,,0.86,meteohub,2013-02-07 22:39:00,
2013-02-07 16:45:00,47.5,37.4,30.01,NNW,327,6.0,16.0,68,0.00,,,0.86,meteohub,2013-02-07 22:45:00,
2013-02-07 16:50:00,47.3,37.2,30.01,North,349,6.0,16.0,68,0.00,,,0.86,meteohub,2013-02-07 22:50:00,
2013-02-07 16:55:00,47.1,37.4,30.01,NE,42,2.0,19.0,69,0.00,,,0.86,meteohub,2013-02-07 22:55:00,
2013-02-07 17:00:00,47.1,37.4,30.02,North,355,2.0,19.0,69,0.00,,,0.86,meteohub,2013-02-07 23:00:00,
2013-02-07 17:05:00,46.9,37.6,30.02,NW,321,10.0,18.0,70,0.00,,,0.86,meteohub,2013-02-07 23:05:00,
2013-02-07 17:10:00,46.9,37.6,30.02,NW,310,7.0,18.0,70,0.00,,,0.86,meteohub,2013-02-07 23:10:00,
2013-02-07 17:15:00,46.9,37.6,30.03,North,11,3.0,16.0,70,0.00,,,0.86,meteohub,2013-02-07 23:15:00,
2013-02-07 17:20:00,46.9,37.6,30.02,NW,323,2.0,16.0,70,0.00,,,0.86,meteohub,2013-02-07 23:20:00,
2013-02-07 17:25:00,46.8,37.6,30.03,NNW,327,3.0,16.0,70,0.00,,,0.86,meteohub,2013-02-07 23:25:00,
2013-02-07 17:30:00,46.6,37.8,30.03,NNW,329,6.0,16.0,71,0.00,,,0.86,meteohub,2013-02-07 23:30:00,
2013-02-07 17:35:00,46.4,37.6,30.03,NW,319,4.0,15.0,71,0.00,,,0.86,meteohub,2013-02-07 23:35:00,
2013-02-07 17:40:00,46.2,37.4,30.03,NNE,32,3.0,15.0,71,0.00,,,0.86,meteohub,2013-02-07 23:40:00,
2013-02-07 17:45:00,45.9,37.0,30.04,NNW,330,4.0,15.0,71,0.00,,,0.86,meteohub,2013-02-07 23:45:00,
2013-02-07 17:50:00,45.7,37.2,30.04,North,355,9.0,14.0,72,0.00,,,0.86,meteohub,2013-02-07 23:50:00,
2013-02-07 17:55:00,45.3,37.2,30.05,NW,312,5.0,14.0,73,0.00,,,0.86,meteohub,2013-02-07 23:55:00,
2013-02-07 18:00:00,45.0,37.2,30.05,NW,306,5.0,14.0,74,0.00,,,0.86,meteohub,2013-02-08 00:00:00,
2013-02-07 18:05:00,44.4,36.7,30.05,North,0,5.0,13.0,74,0.00,,,0.86,meteohub,2013-02-08 00:05:00,
2013-02-07 18:10:00,43.9,36.1,30.06,WNW,296,10.0,13.0,74,0.00,,,0.86,meteohub,2013-02-08 00:10:00,
2013-02-07 18:15:00,43.3,36.0,30.06,NNW,327,6.0,15.0,75,0.00,,,0.00,meteohub,2013-02-08 00:15:00,
2013-02-07 18:20:00,43.0,36.0,30.06,North,355,6.0,15.0,76,0.00,,,0.00,meteohub,2013-02-08 00:20:00,
2013-02-07 18:25:00,42.4,35.4,30.07,WNW,292,12.0,15.0,76,0.00,,,0.00,meteohub,2013-02-08 00:25:00,
2013-02-07 18:30:00,42.3,35.6,30.07,NW,317,5.0,15.0,77,0.00,,,0.00,meteohub,2013-02-08 00:30:00,
2013-02-07 18:35:00,41.9,35.2,30.08,NW,326,7.0,15.0,77,0.00,,,0.00,meteohub,2013-02-08 00:35:00,
2013-02-07 18:40:00,41.4,34.7,30.08,WNW,302,3.0,13.0,77,0.00,,,0.00,meteohub,2013-02-08 00:40:00,
2013-02-07 18:45:00,40.6,34.3,30.09,North,9,9.0,13.0,78,0.00,,,0.00,meteohub,2013-02-08 00:45:00,
2013-02-07 18:50:00,40.3,34.0,30.09,NNW,337,9.0,15.0,78,0.00,,,0.00,meteohub,2013-02-08 00:50:00,
2013-02-07 18:55:00,39.7,33.8,30.09,NW,314,3.0,16.0,79,0.00,,,0.00,meteohub,2013-02-08 00:55:00,
2013-02-07 19:00:00,39.4,33.4,30.10,NNW,331,5.0,16.0,79,0.00,,,0.00,meteohub,2013-02-08 01:00:00,
2013-02-07 19:05:00,39.4,33.8,30.10,NNW,330,12.0,14.0,80,0.00,,,0.00,meteohub,2013-02-08 01:05:00,
2013-02-07 19:10:00,39.2,33.6,30.10,North,355,9.0,14.0,80,0.00,,,0.00,meteohub,2013-02-08 01:10:00,
2013-02-07 19:15:00,39.0,33.4,30.10,NNW,331,1.0,13.0,80,0.00,,,0.00,meteohub,2013-02-08 01:15:00,
2013-02-07 19:20:00,38.8,33.3,30.11,NNW,340,12.0,16.0,80,0.00,,,0.00,meteohub,2013-02-08 01:20:00,
2013-02-07 19:25:00,38.8,33.3,30.11,North,355,7.0,17.0,80,0.00,,,0.00,meteohub,2013-02-08 01:25:00,
2013-02-07 19:30:00,38.7,33.1,30.10,North,5,4.0,17.0,80,0.00,,,0.00,meteohub,2013-02-08 01:30:00,
2013-02-07 19:35:00,38.3,32.7,30.11,NNW,333,6.0,17.0,80,0.00,,,0.00,meteohub,2013-02-08 01:35:00,
2013-02-07 19:40:00,38.1,32.5,30.11,WNW,296,9.0,17.0,80,0.00,,,0.00,meteohub,2013-02-08 01:40:00,
2013-02-07 19:45:00,38.1,32.7,30.12,West,277,9.0,17.0,81,0.00,,,0.00,meteohub,2013-02-08 01:45:00,
2013-02-07 19:50:00,37.9,32.4,30.11,West,271,13.0,17.0,80,0.00,,,0.00,meteohub,2013-02-08 01:50:00,
2013-02-07 19:55:00,37.6,32.0,30.12,NW,325,5.0,15.0,80,0.00,,,0.00,meteohub,2013-02-08 01:55:00,
2013-02-07 20:00:00,37.6,32.0,30.12,NNW,329,6.0,15.0,80,0.00,,,0.00,meteohub,2013-02-08 02:00:00,
2013-02-07 20:05:00,37.2,31.6,30.12,WNW,302,5.0,19.0,80,0.00,,,0.00,meteohub,2013-02-08 02:05:00,
2013-02-07 20:10:00,37.2,32.0,30.12,NE,38,4.0,19.0,81,0.00,,,0.00,meteohub,2013-02-08 02:10:00,
2013-02-07 20:15:00,36.9,31.6,30.13,NNW,327,6.0,19.0,81,0.00,,,0.00,meteohub,2013-02-08 02:15:00,
2013-02-07 20:20:00,36.9,31.6,30.13,NNE,18,6.0,14.0,81,0.00,,,0.00,meteohub,2013-02-08 02:20:00,
2013-02-07 20:25:00,36.5,31.3,30.13,North,350,5.0,14.0,81,0.00,,,0.00,meteohub,2013-02-08 02:25:00,
2013-02-07 20:30:00,36.5,31.3,30.13,NNW,339,2.0,14.0,81,0.00,,,0.00,meteohub,2013-02-08 02:30:00,
2013-02-07 20:35:00,36.3,31.1,30.13,NNW,334,4.0,14.0,81,0.00,,,0.00,meteohub,2013-02-08 02:35:00,
2013-02-07 20:40:00,36.3,31.1,30.14,NE,54,3.0,16.0,81,0.00,,,0.00,meteohub,2013-02-08 02:40:00,
2013-02-07 20:45:00,36.0,30.0,30.14,NNW,343,7.0,16.0,79,0.00,,,0.00,meteohub,2013-02-08 02:45:00,
2013-02-07 20:50:00,35.6,29.7,30.15,ENE,59,6.0,16.0,79,0.00,,,0.00,meteohub,2013-02-08 02:50:00,
2013-02-07 20:55:00,35.4,29.8,30.15,NE,43,3.0,16.0,80,0.00,,,0.00,meteohub,2013-02-08 02:55:00,
2013-02-07 21:00:00,35.2,29.7,30.15,North,5,3.0,16.0,80,0.00,,,0.00,meteohub,2013-02-08 03:00:00,
2013-02-07 21:05:00,34.9,29.1,30.15,NNW,328,4.0,16.0,79,0.00,,,0.00,meteohub,2013-02-08 03:05:00,
2013-02-07 21:10:00,34.5,28.8,30.15,NE,49,5.0,16.0,79,0.00,,,0.00,meteohub,2013-02-08 03:10:00,
2013-02-07 21:15:00,34.3,28.8,30.16,North,355,5.0,16.0,80,0.00,,,0.00,meteohub,2013-02-08 03:15:00,
2013-02-07 21:20:00,34.2,28.6,30.16,NNW,329,12.0,17.0,80,0.00,,,0.00,meteohub,2013-02-08 03:20:00,
2013-02-07 21:25:00,34.2,28.6,30.16,North,0,2.0,17.0,80,0.00,,,0.00,meteohub,2013-02-08 03:25:00,
2013-02-07 21:30:00,34.2,28.6,30.17,NNW,348,2.0,17.0,80,0.00,,,0.00,meteohub,2013-02-08 03:30:00,
2013-02-07 21:35:00,34.2,28.6,30.17,NNE,30,5.0,13.0,80,0.00,,,0.00,meteohub,2013-02-08 03:35:00,
2013-02-07 21:40:00,34.2,28.6,30.17,NNW,329,6.0,12.0,80,0.00,,,0.00,meteohub,2013-02-08 03:40:00,
2013-02-07 21:45:00,33.8,28.2,30.17,NNW,342,5.0,13.0,80,0.00,,,0.00,meteohub,2013-02-08 03:45:00,
2013-02-07 21:50:00,33.6,28.0,30.17,NE,34,4.0,13.0,80,0.00,,,0.00,meteohub,2013-02-08 03:50:00,
2013-02-07 21:55:00,33.4,27.9,30.17,NNE,22,5.0,13.0,80,0.00,,,0.00,meteohub,2013-02-08 03:55:00,
2013-02-07 22:00:00,33.3,27.5,30.18,ENE,65,6.0,14.0,79,0.00,,,0.00,meteohub,2013-02-08 04:00:00,
2013-02-07 22:05:00,33.1,27.5,30.18,North,355,4.0,17.0,80,0.00,,,0.00,meteohub,2013-02-08 04:05:00,
2013-02-07 22:10:00,33.1,27.5,30.18,WNW,289,6.0,17.0,80,0.00,,,0.00,meteohub,2013-02-08 04:10:00,
2013-02-07 22:15:00,32.9,27.5,30.18,NE,36,6.0,17.0,80,0.00,,,0.00,meteohub,2013-02-08 04:15:00,
2013-02-07 22:20:00,32.9,27.7,30.18,NW,306,7.0,17.0,81,0.00,,,0.00,meteohub,2013-02-08 04:20:00,
2013-02-07 22:25:00,33.1,27.9,30.19,NW,315,5.0,17.0,81,0.00,,,0.00,meteohub,2013-02-08 04:25:00,
2013-02-07 22:30:00,33.3,27.7,30.18,NNW,331,4.0,17.0,80,0.00,,,0.00,meteohub,2013-02-08 04:30:00,
2013-02-07 22:35:00,33.3,28.0,30.19,NNE,24,3.0,16.0,81,0.00,,,0.00,meteohub,2013-02-08 04:35:00,
2013-02-07 22:40:00,33.3,28.0,30.19,NW,312,1.0,16.0,81,0.00,,,0.00,meteohub,2013-02-08 04:40:00,
2013-02-07 22:45:00,33.1,27.5,30.19,ESE,102,5.0,16.0,80,0.00,,,0.00,meteohub,2013-02-08 04:45:00,
2013-02-07 22:50:00,33.1,27.5,30.20,North,355,5.0,16.0,80,0.00,,,0.00,meteohub,2013-02-08 04:50:00,
2013-02-07 22:55:00,32.7,27.3,30.20,NE,34,5.0,13.0,80,0.00,,,0.00,meteohub,2013-02-08 04:55:00,
2013-02-07 23:00:00,32.7,27.5,30.20,NNE,13,1.0,15.0,81,0.00,,,0.00,meteohub,2013-02-08 05:00:00,
2013-02-07 23:01:00,32.7,27.5,30.20,NNW,333,0.0,15.0,81,0.00,,,0.00,meteohub,2013-02-08 05:01:00,
2013-02-07 23:06:00,32.9,27.7,30.20,NNW,332,0.0,15.0,81,0.00,,,0.00,meteohub,2013-02-08 05:06:00,
2013-02-07 23:11:00,32.9,27.7,30.20,NNE,26,5.0,15.0,81,0.00,,,0.00,meteohub,2013-02-08 05:11:00,
2013-02-07 23:16:00,32.7,27.5,30.20,NNW,342,3.0,13.0,81,0.00,,,0.00,meteohub,2013-02-08 05:16:00,
2013-02-07 23:21:00,32.7,27.5,30.20,NNE,28,1.0,11.0,81,0.00,,,0.00,meteohub,2013-02-08 05:21:00,
2013-02-07 23:26:00,32.9,27.7,30.20,NW,306,3.0,11.0,81,0.00,,,0.00,meteohub,2013-02-08 05:26:00,
2013-02-07 23:31:00,33.1,27.9,30.21,North,355,4.0,11.0,81,0.00,,,0.00,meteohub,2013-02-08 05:31:00,
2013-02-07 23:36:00,32.9,27.7,30.21,NNW,344,10.0,12.0,81,0.00,,,0.00,meteohub,2013-02-08 05:36:00,
2013-02-07 23:41:00,32.7,27.5,30.21,WNW,294,4.0,12.0,81,0.00,,,0.00,meteohub,2013-02-08 05:41:00,
2013-02-07 23:46:00,33.1,27.9,30.21,NNW,337,2.0,12.0,81,0.00,,,0.00,meteohub,2013-02-08 05:46:00,
2013-02-07 23:51:00,33.1,27.9,30.21,NNE,13,1.0,12.0,81,0.00,,,0.00,meteohub,2013-02-08 05:51:00,
2013-02-07 23:56:00,33.1,27.9,30.21,North,355,2.0,13.0,81,0.00,,,0.00,meteohub,2013-02-08 05:56:00,